Weather History for KAIG - October, 2012

Change the Weather History Date:

Sunday, October 14, 2012

  Actual Average Record
Temperature  
Mean Temperature 42 °F -  
Max Temperature 45 °F 57 °F 80 °F (1975)
Min Temperature 39 °F 34 °F 21 °F (1979)
Degree Days  
Heating Degree Days 23    
Moisture  
Dew Point 42 °F    
Average Humidity 96    
Maximum Humidity 99    
Minimum Humidity 90    
Precipitation  
Precipitation 0.81 in - - ()
Sea Level Pressure  
Sea Level Pressure 29.66 in    
Wind  
Wind Speed 10 mph (NNE)    
Max Wind Speed 20 mph    
Max Gust Speed 29 mph    
Visibility 8 miles    
Events Rain    
Averages and records for this station are not official NWS values.
T = Trace of Precipitation, MM = Missing Value Source: NWS Daily Summary

Daily Weather History Graph

Daily Weather History Graph

Search for Another Location

Airport or City:

Trip Planner

Search our weather history database for the weather conditions in past years. The results will help you decide how hot, cold, wet, or windy it might be!

Date:

Astronomy

Oct. 14, 2012 Rise Set
Actual Time 7:11 AM CDT 6:12 PM CDT
Civil Twilight 6:42 AM CDT 6:41 PM CDT
Nautical Twilight 6:07 AM CDT 7:15 PM CDT
Astronomical Twilight 5:33 AM CDT 7:49 PM CDT
Moon 6:09 AM CDT (10/14) 5:31 PM CDT (10/14)
Length of Visible Light 11h 59m
Length of Day
11h 00m
Waning Crescent, 1% of the Moon is Illuminated
Oct 14
Waning Crescent
Oct 15
New
Oct 21
First Quarter
Oct 29
Full
Nov 6
Last Quarter

Hourly Weather History & Observations

Time (CDT) Temp. Windchill Dew Point Humidity Pressure Visibility Wind Dir Wind Speed Gust Speed Precip Events Conditions
12:15 AM 45.1 °F 43.7 °F 44.8 °F 99% 29.75 in 7.0 mi NE 3.5 mph - N/A   Overcast
12:35 AM 45.1 °F 41.4 °F 45.0 °F 99% 29.75 in 4.0 mi NNE 6.9 mph - N/A   Overcast
12:55 AM 45.1 °F 40.8 °F 44.8 °F 99% 29.74 in 7.0 mi NE 8.1 mph - N/A   Overcast
1:15 AM 45.1 °F 41.4 °F 44.6 °F 98% 29.74 in 10.0 mi ENE 6.9 mph - N/A   Overcast
1:35 AM 45.1 °F 41.4 °F 44.6 °F 98% 29.74 in 10.0 mi ENE 6.9 mph - N/A   Overcast
1:55 AM 45.1 °F 41.4 °F 44.6 °F 98% 29.73 in 10.0 mi ENE 6.9 mph - N/A   Overcast
2:15 AM 45.5 °F 43.2 °F 44.6 °F 97% 29.74 in 10.0 mi ENE 4.6 mph - N/A   Overcast
2:35 AM 45.5 °F 43.2 °F 44.8 °F 97% 29.74 in 10.0 mi ENE 4.6 mph - N/A   Light Drizzle
2:55 AM 45.0 °F 41.2 °F 44.6 °F 99% 29.73 in 10.0 mi NE 6.9 mph - N/A   Overcast
3:15 AM 45.0 °F 41.2 °F 44.2 °F 97% 29.73 in 10.0 mi NE 6.9 mph - N/A   Overcast
3:35 AM 44.8 °F 41.0 °F 44.1 °F 97% 29.73 in 7.0 mi ENE 6.9 mph - N/A   Overcast
3:55 AM 44.6 °F 41.4 °F 44.1 °F 98% 29.71 in 5.0 mi ENE 5.8 mph - N/A   Light Drizzle
4:15 AM 44.6 °F 40.7 °F 43.7 °F 97% 29.72 in 7.0 mi ENE 6.9 mph - N/A   Overcast
4:35 AM 44.6 °F 39.7 °F 43.7 °F 97% 29.71 in 10.0 mi ENE 9.2 mph - N/A   Overcast
4:55 AM 44.2 °F 39.7 °F 43.2 °F 96% 29.70 in 7.0 mi NE 8.1 mph - 0.01 in   Drizzle
5:15 AM 44.1 °F 39.0 °F 43.2 °F 97% 29.69 in 7.0 mi NE 9.2 mph - N/A   Overcast
5:35 AM 43.9 °F 37.9 °F 42.8 °F 96% 29.69 in 10.0 mi NE 11.5 mph - N/A   Overcast
5:55 AM 43.9 °F 39.3 °F 42.8 °F 96% 29.70 in 10.0 mi ENE 8.1 mph - N/A   Overcast
6:15 AM 43.7 °F 38.6 °F 42.8 °F 97% 29.69 in 10.0 mi ENE 9.2 mph - N/A   Overcast
6:35 AM 43.7 °F 37.3 °F 42.4 °F 95% 29.69 in 10.0 mi ENE 12.7 mph - N/A Rain Light Rain
6:55 AM 43.5 °F 37.5 °F 42.6 °F 97% 29.68 in 7.0 mi NE 11.5 mph - N/A   Overcast
7:15 AM 43.2 °F 36.6 °F 42.6 °F 98% 29.68 in 5.0 mi NE 12.7 mph - N/A   Overcast
7:35 AM 43.0 °F 37.2 °F 42.3 °F 97% 29.68 in 3.0 mi ENE 10.4 mph - N/A   Overcast
7:55 AM 43.0 °F 38.2 °F 42.4 °F 98% 29.67 in 1.8 mi ENE 8.1 mph - N/A Rain Light Rain
8:15 AM 42.8 °F 37.5 °F 42.3 °F 98% 29.67 in 3.0 mi NE 9.2 mph - 0.05 in Rain Rain
8:35 AM 42.8 °F 35.1 °F 42.1 °F 97% 29.64 in 4.0 mi ENE 16.1 mph - 0.10 in Rain Heavy Rain
8:55 AM 42.8 °F 38.0 °F 41.9 °F 97% 29.64 in 4.0 mi NE 8.1 mph - 0.16 in Rain Rain
9:15 AM 42.8 °F 36.6 °F 41.9 °F 97% 29.64 in 5.0 mi NNE 11.5 mph - 0.05 in Rain Rain
9:35 AM 42.4 °F 36.1 °F 41.5 °F 97% 29.64 in 5.0 mi NNE 11.5 mph - 0.10 in Rain Rain
9:55 AM 42.4 °F 36.5 °F 41.7 °F 97% 29.64 in 5.0 mi NNE 10.4 mph - 0.16 in Rain Rain
10:15 AM 42.4 °F 35.3 °F 41.5 °F 97% 29.63 in 5.0 mi NNE 13.8 mph 18.4 mph 0.04 in Rain Rain
10:35 AM 42.1 °F 33.3 °F 40.8 °F 95% 29.62 in 7.0 mi NNE 19.6 mph 26.5 mph 0.08 in Rain Light Rain
10:55 AM 41.9 °F 33.7 °F 40.5 °F 95% 29.60 in 5.0 mi NNE 17.3 mph - 0.12 in Rain Rain
11:15 AM 41.5 °F 34.2 °F 40.3 °F 95% 29.61 in 5.0 mi North 13.8 mph 18.4 mph 0.03 in Rain Rain
11:35 AM 41.4 °F 33.6 °F 40.5 °F 97% 29.60 in 5.0 mi North 15.0 mph 20.7 mph 0.07 in Rain Rain
11:55 AM 41.5 °F 34.2 °F 40.5 °F 96% 29.59 in 3.0 mi North 13.8 mph 20.7 mph 0.13 in Rain Rain
12:15 PM 41.9 °F 33.7 °F 40.5 °F 95% 29.58 in 3.0 mi North 17.3 mph 28.8 mph 0.03 in Rain Light Rain
12:35 PM 42.1 °F 34.9 °F 40.8 °F 95% 29.57 in 10.0 mi NNE 13.8 mph 20.7 mph 0.05 in Rain Rain
12:55 PM 42.8 °F 35.8 °F 41.2 °F 94% 29.56 in 10.0 mi North 13.8 mph 23.0 mph 0.07 in Rain Light Rain
1:15 PM 42.8 °F 36.2 °F 41.2 °F 94% 29.56 in 10.0 mi North 12.7 mph - 0.02 in Rain Rain
1:35 PM 42.8 °F 36.6 °F 41.4 °F 95% 29.57 in 10.0 mi North 11.5 mph - 0.03 in Rain Rain
1:55 PM 42.8 °F 37.0 °F 41.4 °F 95% 29.57 in 10.0 mi North 10.4 mph - 0.05 in Rain Light Rain
2:15 PM 43.0 °F 37.7 °F 41.7 °F 95% 29.58 in 10.0 mi North 9.2 mph 20.7 mph 0.01 in Rain Light Rain
2:35 PM 43.5 °F 38.3 °F 42.3 °F 95% 29.58 in 10.0 mi North 9.2 mph - 0.02 in Rain Light Rain
3:15 PM 43.7 °F 36.9 °F 42.8 °F 97% 29.58 in 7.0 mi NNW 13.8 mph 18.4 mph 0.02 in Rain Light Rain
3:35 PM 43.7 °F 37.7 °F 42.8 °F 97% 29.58 in 10.0 mi NNW 11.5 mph - 0.04 in Rain Light Rain
3:55 PM 43.7 °F 37.7 °F 42.8 °F 97% 29.58 in 10.0 mi NNW 11.5 mph 16.1 mph 0.05 in Rain Rain
4:15 PM 43.9 °F 37.9 °F 43.0 °F 97% 29.58 in 10.0 mi NNW 11.5 mph - 0.01 in Rain Light Rain
4:35 PM 44.1 °F 37.7 °F 43.0 °F 96% 29.59 in 7.0 mi NNW 12.7 mph - 0.03 in Rain Light Rain
4:55 PM 44.1 °F 37.7 °F 43.0 °F 96% 29.59 in 10.0 mi NNW 12.7 mph - 0.03 in Rain Light Rain
5:15 PM 44.2 °F 36.7 °F 43.0 °F 95% 29.60 in 10.0 mi NNW 17.3 mph 21.9 mph N/A Rain Light Rain
5:35 PM 44.2 °F 36.7 °F 42.8 °F 95% 29.61 in 10.0 mi North 17.3 mph - 0.01 in   Light Drizzle
5:55 PM 44.2 °F 36.7 °F 42.8 °F 95% 29.62 in 10.0 mi NNW 17.3 mph 21.9 mph 0.01 in Rain Rain
6:15 PM 44.1 °F 38.1 °F 42.3 °F 93% 29.63 in 10.0 mi NNW 11.5 mph 19.6 mph N/A Rain Light Rain
6:35 PM 44.1 °F 37.4 °F 42.3 °F 93% 29.64 in 10.0 mi North 13.8 mph 19.6 mph N/A   Light Drizzle
6:55 PM 43.9 °F 37.2 °F 41.9 °F 93% 29.65 in 10.0 mi NNW 13.8 mph - N/A   Overcast
7:15 PM 43.2 °F 36.6 °F 41.9 °F 95% 29.65 in 7.0 mi NNW 12.7 mph 18.4 mph N/A   Overcast
7:35 PM 42.8 °F 36.2 °F 41.5 °F 95% 29.67 in 10.0 mi NW 12.7 mph 19.6 mph N/A   Overcast
7:55 PM 42.8 °F 35.1 °F 41.0 °F 93% 29.68 in 10.0 mi NNW 16.1 mph 24.2 mph N/A   Overcast
8:15 PM 42.1 °F 34.5 °F 41.0 °F 96% 29.68 in 5.0 mi NW 15.0 mph 21.9 mph N/A   Overcast
8:35 PM 41.9 °F 35.0 °F 40.5 °F 95% 29.69 in 5.0 mi NNW 12.7 mph 20.7 mph N/A   Overcast
8:55 PM 41.5 °F 33.5 °F 40.3 °F 95% 29.69 in 7.0 mi NNW 16.1 mph 24.2 mph N/A   Overcast
9:15 PM 41.4 °F 33.6 °F 39.7 °F 94% 29.70 in 10.0 mi NNW 15.0 mph 18.4 mph N/A   Overcast
9:35 PM 41.0 °F 32.5 °F 38.3 °F 90% 29.71 in 10.0 mi NNW 17.3 mph 24.2 mph N/A   Overcast
9:55 PM 40.6 °F 33.0 °F 39.2 °F 95% 29.71 in 10.0 mi NNW 13.8 mph - N/A   Overcast
10:15 PM 40.6 °F 32.7 °F 38.5 °F 92% 29.71 in 10.0 mi NNW 15.0 mph 19.6 mph N/A   Overcast
10:35 PM 40.3 °F 31.6 °F 38.3 °F 93% 29.72 in 10.0 mi NNW 17.3 mph 23.0 mph N/A   Overcast
10:55 PM 40.1 °F 31.3 °F 37.8 °F 91% 29.72 in 10.0 mi NNW 17.3 mph 25.3 mph N/A   Overcast
11:15 PM 40.1 °F 33.2 °F 37.4 °F 90% 29.72 in 10.0 mi NNW 11.5 mph 23.0 mph N/A   Overcast
11:35 PM 39.7 °F 31.5 °F 37.8 °F 93% 29.73 in 10.0 mi NNW 15.0 mph 20.7 mph N/A   Overcast
11:55 PM 39.7 °F 30.6 °F 37.0 °F 90% 29.72 in 10.0 mi NNW 18.4 mph 24.2 mph N/A   Overcast